Location: Devore Heights
(34.2372°N, 117.4156°W)
Time: 01:13:26
(UTC+00:00)

Vanguard 2 Rocket - Pass Details

Date: 14 September 2024
Orbit: 553 x 3298 km, 32.9° (Epoch: 09 October)

Event Time Altitude Azimuth Distance (km) Brightness Sun altitude
Exits shadow 10:03:34 77° 177° (S) 2,343 8.6 -40.4°
Maximum altitude 10:03:53 77° 165° (SSE) 2,362 8.6 -40.4°
Drops below altitude 10° 10:22:04 10° 83° (E) 6,067 11.6 -37.5°
Sets 10:27:12 0° 83° (E) 7,232 12.2 -36.6°
